[[{"header":{"parameterUnit":"m.s-1","parameterCategory":1,"la1":30.2991,"la2":30.254,"lo1":-89.0895,"lo2":-89.0444,"dy":0.0017,"dx":0.0017,"nx":28,"ny":28,"refTime":"2025-04-15T03:00:00:Z","depth":0,"parameterNumber":2,"parameterNumberName":"U-component_of_WINDS"},"data":[0,0,0,0,0,0,0,0,0,0,0,0,0,0,0,0,0,0,0,0,0,0,0,0,0,0,0,0,0,0,0,0,0,0,0,0,0,0,0,0,0,0,0,0,0,0,0,0,0,0,0,0,0,0,0,0,0,0,-2.5903,-2.5903,0,-2.5847,-2.5847,-2.5846,-2.5713,-2.571,-2.5707,-2.5705,-2.5652,-2.5653,-2.5654,0,0,0,0,0,0,0,0,0,0,0,0,0,-2.59,-2.5901,-2.5903,-2.5903,-2.5902,-2.5847,-2.5847,-2.5846,-2.5714,-2.571,-2.5707,-2.5704,-2.5651,-2.5653,-2.5654,0,0,0,0,0,0,0,0,0,0,0,0,0,-2.5879,-2.5901,-2.5903,-2.5829,-2.5822,-2.5848,-2.5847,-2.5846,-2.5714,-2.571,-2.5706,-2.5702,-2.5651,-2.5652,-2.5654,-2.5749,0,0,-2.566,-2.566,0,0,0,0,0,0,0,0,-2.588,-2.5879,-2.5841,-2.5834,-2.5826,-2.5783,-2.5826,-2.5813,-2.5715,-2.5755,-2.5705,-2.57,-2.5699,-2.5696,-2.5695,-2.5746,-2.5744,-2.566,-2.5661,-2.5662,-2.5662,0,0,0,0,0,0,0,-2.5882,-2.5881,-2.5881,-2.5841,-2.5832,-2.58,-2.5793,-2.5823,-2.5751,-2.5752,-2.5742,-2.5737,-2.5694,-2.5694,-2.5693,-2.5743,-2.566,-2.5661,-2.5662,-2.5663,-2.5871,-2.5875,0,0,0,0,0,0,-2.5894,-2.5883,-2.5883,-2.5879,-2.5843,-2.5804,-2.5795,-2.5801,-2.5751,-2.5739,-2.574,-2.5731,-2.5693,-2.5691,-2.5691,-2.5799,-2.5662,-2.5663,-2.5664,-2.5866,-2.5871,-2.5876,0,0,0,0,0,0,-2.5894,-2.5895,-2.5885,-2.5879,-2.5875,-2.5808,-2.5816,-2.5802,-2.5802,-2.5742,-2.5729,-2.5753,-2.569,-2.5688,-2.5735,-2.5795,-2.5664,-2.5666,-2.5861,-2.5868,-2.5874,-2.6016,0,0,0,0,0,0,-2.5894,-2.5896,-2.593,-2.588,-2.5876,-2.593,-2.582,-2.5804,-2.5805,-2.5791,-2.575,-2.574,-2.5686,-2.5733,-2.5737,-2.5795,-2.5667,-2.5855,-2.5864,-2.5872,-2.6006,-2.6027,-2.6045,0,0,0,0,0,-2.5895,-2.5973,-2.5932,-2.5933,-2.5917,-2.5934,-2.5931,-2.5867,-2.581,-2.5844,-2.5806,-2.5741,-2.5788,-2.5739,-2.5742,-2.5802,-2.5851,-2.5861,-2.5871,-2.5997,-2.6023,-2.6045,0,0,0,0,0,0,-2.6032,-2.5965,-2.5919,-2.5983,-2.5965,-2.5911,-2.5952,-2.5896,-2.5895,-2.5883,-2.5804,-2.5796,-2.5855,-2.5833,-2.578,-2.5892,-2.5809,-2.582,-2.5904,-2.5928,-2.5947,-2.5952,-2.5668,0,0,0,0,0,-2.6069,-2.6087,-2.6028,-2.609,-2.6083,-2.602,-2.6025,-2.5977,-2.5956,-2.5948,-2.5913,-2.5896,-2.5907,-2.5916,-2.5923,-2.6002,-2.5992,-2.6045,-2.6064,-2.6081,-2.6092,-2.6134,-2.6157,-2.5909,-2.5909,-2.5909,0,0,-2.6147,-2.6113,-2.6129,-2.6117,-2.6097,-2.6119,-2.6014,-2.6042,-2.6058,-2.5952,-2.5994,-2.5969,-2.5945,-2.6009,-2.6036,-2.5993,-2.6158,-2.6093,-2.6107,-2.6109,-2.6147,-2.617,-2.6191,-2.5916,-2.5915,-2.5914,0,0,-2.63,-2.6275,-2.6325,-2.6308,-2.6279,-2.6236,-2.6249,-2.6204,-2.6183,-2.6224,-2.6145,-2.6164,-2.6184,-2.6171,-2.6167,-2.6317,-2.6258,-2.6322,-2.6424,-2.6466,-2.6486,-2.6503,-2.6558,-2.6579,-2.6332,-2.6333,-2.6333,0,-2.6401,-2.643,-2.6358,-2.6391,-2.6389,-2.6293,-2.6344,-2.6331,-2.6307,-2.6309,-2.626,-2.6285,-2.6262,-2.6322,-2.6359,-2.6359,-2.6372,-2.6326,-2.6489,-2.6505,-2.652,-2.6572,-2.6593,-2.6341,-2.634,-2.6339,-2.6338,0,-2.6556,-2.6578,-2.6621,-2.66,-2.6602,-2.6644,-2.6581,-2.6592,-2.6545,-2.6508,-2.6553,-2.6522,-2.6521,-2.6532,-2.6486,-2.6587,-2.6561,-2.6502,-2.6418,-2.6553,-2.66,-2.662,-2.6352,-2.6349,-2.6347,-2.6345,0,0,-2.6794,-2.6733,-2.675,-2.674,-2.6702,-2.6718,-2.6757,-2.6755,-2.6768,-2.6755,-2.6786,-2.6806,-2.6751,-2.6747,-2.6699,-2.6736,-2.6859,-2.6672,-2.667,-2.6709,-2.6971,-2.7017,-2.7041,-2.6819,-2.6823,-2.6825,-2.6974,0,-2.6939,-2.7,-2.6937,-2.7012,-2.7032,-2.6942,-2.6976,-2.6958,-2.6925,-2.6938,-2.6902,-2.6918,-2.6844,-2.6841,-2.6873,-2.6837,-2.6911,-2.6826,-2.685,-2.6852,-2.686,-2.7066,-2.7114,-2.7255,-2.6992,-2.6995,-2.6997,0,-2.7116,-2.7111,-2.7188,-2.7146,-2.7152,-2.7184,-2.7179,-2.7192,-2.717,-2.7144,-2.714,-2.7081,-2.7118,-2.7035,-2.7086,-2.7029,-2.7036,-2.702,-2.7024,-2.7025,-2.6934,-2.7074,-2.7299,-2.7321,-2.7025,-2.7023,-2.7021,0,-2.7285,-2.7297,-2.7344,-2.7338,-2.7291,-2.7315,-2.7297,-2.7271,-2.7275,-2.727,-2.7272,-2.7273,-2.7274,-2.7277,-2.7221,-2.7166,-2.728,-2.7192,-2.7261,-2.7263,-2.729,-2.729,-2.7521,-2.7293,-2.7292,-2.7292,-2.7291,0,-2.7454,-2.7505,-2.7419,-2.7449,-2.7504,-2.7432,-2.7489,-2.7461,-2.7439,-2.7463,-2.7386,-2.7411,-2.7334,-2.7352,-2.7308,-2.7358,-2.7359,-2.734,-2.7328,-2.7348,-2.7351,-2.7352,-2.7341,-2.7297,-2.7296,-2.7295,-2.7294,0,-2.7651,-2.7595,-2.7642,-2.7593,-2.7582,-2.7625,-2.7585,-2.7611,-2.7573,-2.7605,-2.7608,-2.755,-2.7566,-2.751,-2.7518,-2.7489,-2.7563,-2.7534,-2.757,-2.7562,-2.7635,-2.763,-2.7877,-2.7907,-2.7658,-2.766,-2.7662,0,-2.7763,-2.78,-2.7756,-2.7766,-2.7752,-2.7769,-2.7772,-2.7704,-2.7711,-2.769,-2.772,-2.7729,-2.7734,-2.7765,-2.7724,-2.773,-2.7702,-2.7788,-2.7702,-2.7721,-2.7705,-2.7704,-2.7709,-2.7806,-2.7809,-2.7812,-2.7814,0,-2.7969,-2.794,-2.7948,-2.7947,-2.7953,-2.7949,-2.7939,-2.7952,-2.7879,-2.7891,-2.7907,-2.791,-2.7918,-2.793,-2.7927,-2.7909,-2.7851,-2.7841,-2.7857,-2.7879,-2.7899,-2.7891,-2.7621,-2.7836,-2.7833,-2.7832,-2.7831,-2.783,-2.8128,-2.8158,-2.8132,-2.8143,-2.8129,-2.8122,-2.8145,-2.811,-2.8122,-2.8122,-2.8081,-2.8106,-2.8085,-2.8075,-2.8064,-2.8083,-2.8043,-2.8067,-2.8073,-2.8081,-2.8094,-2.7895,-2.8082,-2.8081,-2.8081,-2.808,-2.808,0,-2.8332,-2.8311,-2.8322,-2.8311,-2.8321,-2.8263,-2.825,-2.8263,-2.8285,-2.827,-2.8275,-2.8295,-2.8306,-2.8267,-2.8273,-2.8296,-2.8269,-2.83,-2.8298,-2.8296,-2.8128,-2.8114,-2.8322,-2.8322,-2.8322,-2.8322,-2.8321,-2.8321,-2.8439,-2.8486,-2.8454,-2.8495,-2.8473,-2.8496,-2.8494,-2.8488,-2.8476,-2.85,-2.8509,-2.8483,-2.8459,-2.8463,-2.8471,-2.8459,-2.8466,-2.8507,-2.8487,-2.8331,-2.8307,-2.8285,-2.8271,-2.8509,-2.8509,-2.8653,-2.8654,-2.8655]},{"header":{"parameterUnit":"m.s-1","parameterCategory":1,"la1":30.2991,"la2":30.254,"lo1":-89.0895,"lo2":-89.0444,"dy":0.0017,"dx":0.0017,"nx":28,"ny":28,"refTime":"2025-04-15T03:00:00:Z","depth":0,"parameterNumber":3,"parameterNumberName":"V-component_of_WINDS"},"data":[0,0,0,0,0,0,0,0,0,0,0,0,0,0,0,0,0,0,0,0,0,0,0,0,0,0,0,0,0,0,0,0,0,0,0,0,0,0,0,0,0,0,0,0,0,0,0,0,0,0,0,0,0,0,0,0,0,0,0.7071,0.7071,0,0.7014,0.7013,0.7013,0.7006,0.7007,0.7007,0.7008,0.6945,0.6943,0.6941,0,0,0,0,0,0,0,0,0,0,0,0,0,0.7172,0.717,0.7071,0.7071,0.707,0.7014,0.7013,0.7013,0.7006,0.7007,0.7007,0.7008,0.6946,0.6943,0.6941,0,0,0,0,0,0,0,0,0,0,0,0,0,0.7123,0.717,0.7071,0.706,0.7058,0.7014,0.7013,0.7012,0.7006,0.7007,0.7007,0.7008,0.6947,0.6943,0.694,0.6903,0,0,0.693,0.6929,0,0,0,0,0,0,0,0,0.7126,0.7119,0.7062,0.7061,0.7059,0.7018,0.7026,0.6975,0.7005,0.7026,0.7008,0.7009,0.6968,0.6963,0.6951,0.69,0.6897,0.693,0.6928,0.6926,0.6925,0,0,0,0,0,0,0,0.7129,0.7122,0.7049,0.7061,0.7059,0.7057,0.7051,0.7016,0.6993,0.7024,0.7023,0.7017,0.6968,0.6954,0.6949,0.6896,0.693,0.6927,0.6925,0.6924,0.6811,0.681,0,0,0,0,0,0,0.7135,0.7124,0.705,0.7047,0.7095,0.7054,0.7047,0.703,0.6993,0.6988,0.7016,0.7017,0.6959,0.6953,0.6947,0.69,0.6926,0.6923,0.6921,0.6812,0.6811,0.681,0,0,0,0,0,0,0.7137,0.7129,0.7053,0.7085,0.7076,0.7052,0.7032,0.7029,0.7015,0.6987,0.6983,0.7007,0.6959,0.6952,0.6914,0.6898,0.6922,0.6919,0.6813,0.6812,0.681,0.6806,0,0,0,0,0,0,0.714,0.7129,0.7115,0.7085,0.7074,0.7021,0.7031,0.7027,0.701,0.701,0.6977,0.6972,0.696,0.6919,0.6911,0.6893,0.6916,0.6815,0.6813,0.6811,0.6807,0.6804,0.6802,0,0,0,0,0,0.7144,0.7115,0.7115,0.7106,0.7056,0.702,0.7014,0.7001,0.7008,0.6994,0.6976,0.6973,0.6901,0.6915,0.6906,0.6887,0.6816,0.6813,0.6811,0.6808,0.6805,0.6802,0,0,0,0,0,0,0.7142,0.7111,0.711,0.7071,0.7049,0.7019,0.7,0.6997,0.6971,0.6972,0.6956,0.6949,0.6912,0.6896,0.6912,0.6849,0.6859,0.6855,0.686,0.6857,0.6854,0.6858,0.6914,0,0,0,0,0,0.7138,0.7113,0.7087,0.7055,0.7044,0.7024,0.7008,0.7,0.6976,0.6966,0.6945,0.6921,0.6893,0.6874,0.6847,0.6806,0.6798,0.6789,0.6786,0.6784,0.678,0.6757,0.6752,0.6802,0.6802,0.6803,0,0,0.7128,0.7108,0.7092,0.7054,0.7036,0.7009,0.7016,0.6987,0.6967,0.6961,0.6924,0.6909,0.688,0.6841,0.6822,0.6827,0.6765,0.6781,0.678,0.6776,0.6754,0.6749,0.6745,0.6801,0.6801,0.6801,0,0,0.7095,0.7078,0.705,0.7032,0.7004,0.6992,0.6985,0.6957,0.6946,0.691,0.6905,0.688,0.6832,0.6812,0.6795,0.6757,0.6753,0.6749,0.6734,0.6711,0.6707,0.6704,0.6689,0.6684,0.6745,0.6745,0.6745,0,0.7085,0.7046,0.7035,0.7007,0.699,0.6985,0.6956,0.6939,0.6903,0.6891,0.6897,0.6837,0.6817,0.6773,0.6764,0.6751,0.6742,0.6751,0.6709,0.6705,0.6702,0.6687,0.6682,0.6745,0.6745,0.6745,0.6745,0,0.7035,0.7008,0.6988,0.6955,0.6936,0.6908,0.6892,0.6874,0.6868,0.6855,0.6818,0.6794,0.6762,0.6752,0.6745,0.6706,0.671,0.6713,0.6722,0.6697,0.6683,0.6677,0.6744,0.6744,0.6744,0.6744,0,0,0.6997,0.6961,0.6954,0.6939,0.6909,0.6888,0.6859,0.6829,0.6813,0.679,0.6764,0.6725,0.6728,0.6709,0.67,0.6681,0.6651,0.6686,0.6685,0.6679,0.6606,0.6603,0.6597,0.665,0.6649,0.6648,0.6608,0,0.696,0.691,0.69,0.6855,0.683,0.6826,0.6801,0.678,0.6767,0.6743,0.6728,0.67,0.6706,0.6695,0.6676,0.6659,0.6636,0.6662,0.6624,0.6623,0.663,0.659,0.6586,0.655,0.6603,0.6602,0.6601,0,0.691,0.6886,0.684,0.6814,0.6803,0.6781,0.6753,0.673,0.6706,0.6698,0.6678,0.6672,0.6641,0.6654,0.6611,0.6629,0.6613,0.6603,0.6601,0.6595,0.6609,0.6581,0.6538,0.6532,0.6593,0.6594,0.6594,0,0.6885,0.6842,0.6809,0.6797,0.6766,0.6751,0.6737,0.6714,0.6697,0.6673,0.6661,0.6633,0.6617,0.6595,0.6581,0.6592,0.6539,0.655,0.653,0.653,0.6517,0.6517,0.6468,0.651,0.651,0.651,0.651,0,0.6844,0.6815,0.6798,0.6777,0.6745,0.6734,0.6702,0.6688,0.6668,0.6644,0.664,0.6617,0.6601,0.6576,0.6565,0.6531,0.6524,0.6516,0.6513,0.6515,0.6516,0.6503,0.6504,0.6509,0.6509,0.6509,0.651,0,0.681,0.6798,0.6761,0.6736,0.6729,0.6706,0.6685,0.6664,0.6652,0.6622,0.6614,0.6595,0.6565,0.655,0.6513,0.6506,0.6466,0.6466,0.6474,0.6473,0.6453,0.6454,0.6392,0.6383,0.6432,0.6432,0.6431,0,0.6783,0.6762,0.6735,0.6719,0.6706,0.668,0.6663,0.6652,0.6635,0.6606,0.6589,0.656,0.6535,0.6488,0.647,0.6441,0.6439,0.6419,0.6434,0.6437,0.6437,0.6437,0.6435,0.6416,0.6415,0.6415,0.6414,0,0.6737,0.6732,0.6709,0.6683,0.6663,0.6642,0.6621,0.6608,0.6593,0.6574,0.6544,0.6525,0.6488,0.6459,0.6429,0.6414,0.6411,0.641,0.6404,0.6405,0.641,0.6406,0.6465,0.6411,0.6411,0.6412,0.6412,0.6412,0.6705,0.6685,0.6664,0.6637,0.6621,0.6602,0.6581,0.6568,0.6544,0.6513,0.6508,0.6477,0.6454,0.6414,0.6399,0.6373,0.6377,0.6368,0.6365,0.6363,0.6361,0.6416,0.6368,0.6368,0.6368,0.6368,0.6368,0,0.6657,0.6644,0.662,0.6591,0.6571,0.6572,0.655,0.6532,0.6504,0.6484,0.6461,0.6427,0.6398,0.6379,0.635,0.6333,0.6331,0.6326,0.6326,0.6322,0.636,0.6367,0.6328,0.6328,0.6328,0.6328,0.6328,0.6328,0.6629,0.6596,0.6589,0.6548,0.6534,0.6504,0.6491,0.6473,0.6457,0.6419,0.6396,0.6385,0.6365,0.6335,0.6308,0.6303,0.6292,0.6287,0.6281,0.6316,0.632,0.6324,0.6331,0.6285,0.6285,0.6246,0.6246,0.6245]}]]